TimeAST,TemperatureF,Dew PointF,Humidity,Sea Level PressureIn,VisibilityMPH,Wind Direction,Wind SpeedMPH,Gust SpeedMPH,PrecipitationIn,Events,Conditions,WindDirDegrees,DateUTC
12:00 AM,80.6,69.8,70,29.89,6.2,ESE,10.4,-,N/A,,Partly Cloudy,120,2012-11-20 04:00:00
1:00 AM,80.6,69.8,70,29.89,6.2,ESE,8.1,-,N/A,,Partly Cloudy,110,2012-11-20 05:00:00
2:00 AM,80,70,63,29.86,28,ESE,8.1,,,,Scattered Clouds,110,2012-11-20 06:00:00
2:00 AM,80.6,69.8,70,29.86,6.2,ESE,8.1,-,N/A,,Partly Cloudy,110,2012-11-20 06:00:00
3:00 AM,80.6,69.8,70,29.83,6.2,ESE,8.1,-,N/A,,Partly Cloudy,110,2012-11-20 07:00:00
5:00 AM,80,71,66,29.84,28,SE,11.5,,,,Scattered Clouds,130,2012-11-20 09:00:00
5:00 AM,80.6,71.6,74,29.83,6.2,SE,11.5,-,N/A,,Partly Cloudy,130,2012-11-20 09:00:00
6:00 AM,78.8,69.8,74,29.83,6.2,ESE,5.8,-,N/A,,Partly Cloudy,120,2012-11-20 10:00:00
7:00 AM,80.6,71.6,74,29.86,6.2,SE,11.5,-,N/A,,Partly Cloudy,140,2012-11-20 11:00:00
8:00 AM,82,71,62,29.88,40,SSE,9.2,,,,Scattered Clouds,160,2012-11-20 12:00:00
8:00 AM,82.4,71.6,70,29.86,6.2,SE,9.2,-,N/A,,Partly Cloudy,140,2012-11-20 12:00:00
9:00 AM,82.4,71.6,70,29.89,6.2,SSE,10.4,-,N/A,,Scattered Clouds,150,2012-11-20 13:00:00
10:00 AM,84.2,71.6,66,29.89,6.2,SSE,6.9,-,N/A,,Partly Cloudy,150,2012-11-20 14:00:00
11:00 AM,84,72,59,29.90,44,SSE,8.1,,,,Scattered Clouds,150,2012-11-20 15:00:00
11:00 AM,84.2,71.6,66,29.89,6.2,SSE,8.1,-,N/A,,Partly Cloudy,150,2012-11-20 15:00:00
12:00 PM,84.2,73.4,70,29.86,6.2,SSE,6.9,-,N/A,,Partly Cloudy,150,2012-11-20 16:00:00
1:00 PM,84.2,73.4,70,29.83,6.2,SSE,6.9,-,N/A,,Partly Cloudy,160,2012-11-20 17:00:00
2:00 PM,85,72,57,29.83,34,,2.3,,,,Scattered Clouds,,2012-11-20 18:00:00
2:00 PM,86.0,71.6,62,29.83,6.2,Variable,2.3,-,N/A,,Partly Cloudy,0,2012-11-20 18:00:00
3:00 PM,86.0,71.6,62,29.83,6.2,Variable,3.5,-,N/A,,Scattered Clouds,0,2012-11-20 19:00:00
4:00 PM,86.0,71.6,62,29.83,6.2,Variable,2.3,-,N/A,,Partly Cloudy,0,2012-11-20 20:00:00
5:00 PM,84,71,57,29.84,44,,3.5,,,,Scattered Clouds,,2012-11-20 21:00:00
5:00 PM,84.2,71.6,66,29.83,6.2,Variable,3.5,-,N/A,,Partly Cloudy,0,2012-11-20 21:00:00
6:00 PM,82.4,71.6,70,29.83,-9999.0,SW,4.6,-,N/A,,Partly Cloudy,220,2012-11-20 22:00:00
7:00 PM,82.4,71.6,70,29.83,6.2,Variable,2.3,-,N/A,,Partly Cloudy,0,2012-11-20 23:00:00
8:00 PM,82,72,63,29.86,37,,2.3,,,,Scattered Clouds,,2012-11-21 00:00:00
8:00 PM,82.4,71.6,70,29.86,6.2,Variable,2.3,-,N/A,,Partly Cloudy,0,2012-11-21 00:00:00
9:00 PM,82.4,71.6,70,29.86,6.2,Variable,2.3,-,N/A,,Partly Cloudy,0,2012-11-21 01:00:00
10:00 PM,82.4,71.6,70,29.86,6.2,Variable,3.5,-,N/A,,Partly Cloudy,0,2012-11-21 02:00:00
11:00 PM,82,70,59,29.88,37,,2.3,,,,Scattered Clouds,,2012-11-21 03:00:00
11:00 PM,82.4,69.8,66,29.86,6.2,Variable,2.3,-,N/A,,Partly Cloudy,0,2012-11-21 03:00:00